Roseburg, OR

2:19 AM PDT on June 28, 2017 (GMT -0700)
Roseburg Regional

Weather History for KRBG - August, 2013

Change the Weather History Date:

Monday, August 12, 2013

  Actual Average Record
Temperature  
Mean Temperature 71 °F 71 °F  
Max Temperature 84 °F 85 °F 106 °F (1935)
Min Temperature 58 °F 56 °F 45 °F (1957)
Degree Days  
Heating Degree Days 0 0  
Month to date heating degree days 0 0  
Since 1 June heating degree days 35 94  
Since 1 July heating degree days 0 11  
Cooling Degree Days 6 6  
Month to date cooling degree days 90 75  
Year to date cooling degree days 541 318  
Since 1 June cooling degree days 507 298  
Growing Degree Days 20 (Base 50)    
Moisture  
Dew Point 54 °F    
Average Humidity 61    
Maximum Humidity 86    
Minimum Humidity 36    
Precipitation  
Precipitation 0.00 in 0.02 in 0.29 in (1965)
Month to date precipitation 0.16 0.11  
Year to date precipitation 8.04 19.29  
Sea Level Pressure  
Sea Level Pressure 30.04 in    
Wind  
Wind Speed 4 mph (North)    
Max Wind Speed 15 mph    
Max Gust Speed 20 mph    
Visibility 10 miles    
Events      
T = Trace of Precipitation, MM = Missing Value Source: NWS Daily Summary

Daily Weather History Graph

Daily Weather History Graph

Search for Another Location

Airport or City:

Trip Planner

Search our weather history database for the weather conditions in past years. The results will help you decide how hot, cold, wet, or windy it might be!

Date:

Astronomy

Aug. 12, 2013 Rise Set
Actual Time 6:15 AM PDT 8:20 PM PDT
Civil Twilight 5:44 AM PDT 8:51 PM PDT
Nautical Twilight 5:06 AM PDT 9:29 PM PDT
Astronomical Twilight 4:24 AM PDT 10:10 PM PDT
Moon 12:24 PM PDT (8/12) 11:04 PM PDT (8/12)
Length of Visible Light 15h 06m
Length of Day
14h 04m
Waxing Crescent, 32% of the Moon is Illuminated
Aug 12
Waxing Crescent
Aug 14
First Quarter
Aug 20
Full
Aug 28
Last Quarter
Sep 5
New

Hourly Weather History & Observations

Time (PDT) Temp. Heat Index Dew Point Humidity Pressure Visibility Wind Dir Wind Speed Gust Speed Precip Events Conditions
12:53 AM 61.0 °F - 54.0 °F 78% 30.04 in 10.0 mi NNE 4.6 mph - N/A   Clear
1:53 AM 60.1 °F - 54.0 °F 80% 30.05 in 10.0 mi North 4.6 mph - N/A   Clear
2:50 AM 60.8 °F - 53.6 °F 77% 30.05 in 10.0 mi NNE 3.5 mph - N/A   Overcast
2:53 AM 60.1 °F - 53.1 °F 78% 30.04 in 10.0 mi North 4.6 mph - N/A   Overcast
3:53 AM 60.1 °F - 53.1 °F 78% 30.05 in 10.0 mi North 4.6 mph - N/A   Overcast
4:53 AM 60.1 °F - 53.1 °F 78% 30.05 in 10.0 mi North 4.6 mph - N/A   Overcast
5:53 AM 59.0 °F - 53.1 °F 81% 30.05 in 10.0 mi North 4.6 mph - N/A   Overcast
6:53 AM 57.9 °F - 53.1 °F 84% 30.06 in 10.0 mi NNW 4.6 mph - N/A   Overcast
7:53 AM 59.0 °F - 53.1 °F 81% 30.06 in 10.0 mi Calm Calm - N/A   Overcast
8:53 AM 60.1 °F - 53.1 °F 78% 30.07 in 10.0 mi NNE 3.5 mph - N/A   Overcast
9:53 AM 62.1 °F - 54.0 °F 75% 30.08 in 10.0 mi Calm Calm - N/A   Overcast
10:53 AM 62.1 °F - 54.0 °F 75% 30.08 in 10.0 mi Calm Calm - N/A   Overcast
11:53 AM 64.9 °F - 54.0 °F 68% 30.08 in 10.0 mi SW 3.5 mph - N/A   Overcast
12:53 PM 66.9 °F - 54.0 °F 63% 30.06 in 10.0 mi Calm Calm - N/A   Overcast
1:12 PM 69.8 °F - 55.4 °F 60% 30.06 in 10.0 mi Calm Calm - N/A   Scattered Clouds
1:53 PM 72.0 °F - 55.0 °F 55% 30.04 in 10.0 mi Calm Calm - N/A   Clear
2:53 PM 75.9 °F - 55.0 °F 48% 30.02 in 10.0 mi Variable 3.5 mph - N/A   Clear
3:53 PM 80.1 °F 80.0 °F 54.0 °F 40% 30.00 in 10.0 mi Variable 5.8 mph - N/A   Clear
4:53 PM 82.0 °F 81.2 °F 53.1 °F 37% 29.99 in 10.0 mi NNW 8.1 mph - N/A   Clear
5:53 PM 82.0 °F 81.2 °F 53.1 °F 37% 29.98 in 10.0 mi North 13.8 mph - N/A   Clear
6:53 PM 81.0 °F - 52.0 °F 36% 29.99 in 10.0 mi North 9.2 mph - N/A   Clear
7:53 PM 77.0 °F - 54.0 °F 45% 30.00 in 10.0 mi North 6.9 mph - N/A   Clear
8:53 PM 73.0 °F - 54.0 °F 51% 30.04 in 10.0 mi NNW 6.9 mph - N/A   Clear
9:53 PM 70.0 °F - 54.0 °F 57% 30.06 in 10.0 mi North 4.6 mph - N/A   Clear
10:53 PM 66.9 °F - 54.0 °F 63% 30.06 in 10.0 mi NNE 3.5 mph - N/A   Clear
11:53 PM 64.0 °F - 53.1 °F 67% 30.06 in 10.0 mi North 3.5 mph - N/A   Clear